Location: Jackson
(42.2460°N, 84.4010°W)
Time: 02:10:52
(UTC-05:00)

Transit 2A - All Passes

Search period start: 15 February 2026 00:00
Search period end: 25 February 2026 00:00
Orbit: 589 x 955 km, 66.7° (Epoch: 13 February)

Date Brightness Start Highest point End Pass type
(mag) Time Alt. Az. Time Alt. Az. Time Alt. Az.
15 Feb - 00:24:48 10° WNW 00:28:17 16° WSW 00:31:36 10° SW night (unlit)
15 Feb - 13:17:26 10° SSW 13:23:21 58° ESE 13:29:33 10° NE daylight
15 Feb - 15:01:27 10° WSW 15:06:51 30° NW 15:12:23 10° NNE daylight
15 Feb - 20:22:02 10° N 20:24:59 14° NNE 20:27:50 10° ENE visible
15 Feb - 22:03:42 10° NNW 22:09:37 52° NE 22:14:59 10° SE visible
15 Feb - 23:47:34 10° NW 23:52:16 25° WSW 23:56:36 10° SSW visible
16 Feb - 12:41:33 10° S 12:47:08 40° ESE 12:52:58 10° NE daylight
16 Feb - 14:24:27 10° WSW 14:30:15 41° NW 14:36:13 10° NNE daylight
16 Feb - 16:12:55 10° NW 16:15:10 12° NNW 16:17:25 10° N daylight
16 Feb - 19:46:46 10° NNE 19:48:03 11° NNE 19:49:19 10° NE visible
16 Feb - 21:27:29 10° NNW 21:33:05 37° NE 21:38:13 10° ESE visible
16 Feb - 23:10:46 10° NW 23:16:09 38° WSW 23:21:05 10° S visible
17 Feb - 12:06:01 10° SSE 12:11:00 27° ESE 12:16:10 10° NE daylight
17 Feb - 13:47:41 10° SW 13:53:44 57° NW 13:59:59 10° NNE daylight
17 Feb - 15:34:45 10° WNW 15:38:16 15° NNW 15:41:47 10° N daylight
17 Feb - 20:51:20 10° NNW 20:56:27 28° NE 21:01:12 10° ESE visible
17 Feb - 22:34:09 10° NW 22:39:58 57° WSW 22:45:13 10° SSE visible
18 Feb - 11:30:57 10° SE 11:34:56 18° ESE 11:39:02 10° ENE daylight
18 Feb - 13:11:09 10° SW 13:17:17 79° WNW 13:23:40 10° NNE daylight
18 Feb - 14:57:02 10° W 15:01:26 19° NW 15:05:53 10° N daylight
18 Feb - 20:15:16 10° N 20:19:45 21° NE 20:23:57 10° E visible
18 Feb - 21:57:40 10° NNW 22:03:41 84° WSW 22:09:04 10° SSE visible
18 Feb - 23:43:45 10° W 23:45:38 12° W 23:47:28 10° WSW visible
19 Feb - 10:56:57 10° ESE 10:58:56 12° E 11:00:58 10° E daylight
19 Feb - 12:34:51 10° SSW 12:40:56 74° ESE 12:47:17 10° NE daylight
19 Feb - 14:19:38 10° W 14:24:41 25° NW 14:29:50 10° NNE daylight
19 Feb - 19:39:19 10° N 19:42:57 16° NE 19:46:25 10° ENE visible
19 Feb - 21:21:19 10° NNW 21:27:18 67° ENE 21:32:41 10° SE visible
19 Feb - 23:05:47 10° WNW 23:09:39 19° WSW 23:13:17 10° SW visible
20 Feb - 11:58:47 10° S 12:04:40 52° ESE 12:10:47 10° NE daylight
20 Feb - 13:42:28 10° WSW 13:48:03 33° NW 13:53:43 10° NNE daylight
20 Feb - 15:32:52 10° NNW 15:33:12 10° NNW 15:33:33 10° NNW daylight
20 Feb - 19:03:37 10° N 19:06:04 12° NNE 19:08:27 10° NE visible
20 Feb - 20:45:03 10° NNW 20:50:49 47° NE 20:56:04 10° SE visible
20 Feb - 22:28:43 10° NW 22:33:35 28° WSW 22:38:05 10° SSW visible
21 Feb - 11:23:00 10° S 11:28:28 35° ESE 11:34:08 10° NE daylight
21 Feb - 13:05:33 10° SW 13:11:28 45° NW 13:17:32 10° NNE daylight
21 Feb - 14:53:33 10° NW 14:56:15 13° NNW 14:58:57 10° N daylight
21 Feb - 20:08:50 10° NNW 20:14:15 34° NE 20:19:14 10° ESE visible
21 Feb - 21:51:58 10° NW 21:57:28 43° WSW 22:02:26 10° S visible
22 Feb - 10:47:35 10° SSE 10:52:21 24° ESE 10:57:15 10° NE daylight
22 Feb - 12:28:51 10° SW 12:34:58 63° NW 12:41:17 10° NNE daylight
22 Feb - 14:15:33 10° WNW 14:19:22 16° NW 14:23:12 10° N daylight
22 Feb - 19:32:42 10° NNW 19:37:36 25° NE 19:42:08 10° E visible
22 Feb - 21:15:24 10° NW 21:21:14 65° WSW 21:26:29 10° SSE visible
23 Feb - 10:12:43 10° SE 10:16:18 16° ESE 10:19:57 10° ENE daylight
23 Feb - 11:52:23 10° SSW 11:58:33 87° WNW 12:04:56 10° NNE daylight
23 Feb - 13:37:56 10° W 13:42:34 21° NW 13:47:15 10° N daylight
23 Feb - 18:56:41 10° N 19:00:51 19° NE 19:04:47 10° E visible
23 Feb - 20:38:57 10° NNW 20:44:56 86° ENE 20:50:16 10° SSE visible
23 Feb - 22:24:22 10° WNW 22:26:59 13° W 22:29:30 10° SW visible
24 Feb - 11:16:08 10° SSW 11:22:13 67° ESE 11:28:31 10° NE daylight
24 Feb - 13:00:36 10° WSW 13:05:51 28° NW 13:11:11 10° NNE daylight
24 Feb - 18:20:48 10° N 18:24:02 15° NNE 18:27:07 10° ENE daylight
24 Feb - 20:02:37 10° NNW 20:08:30 60° NE 20:13:48 10° SE visible
24 Feb - 21:46:49 10° WNW 21:50:59 21° WSW 21:54:53 10° SSW visible
